MST,Max TemperatureF,Mean TemperatureF,Min TemperatureF,Max Dew PointF,MeanDew PointF,Min DewpointF,Max Humidity, Mean Humidity, Min Humidity, Max Sea Level PressureIn, Mean Sea Level PressureIn, Min Sea Level PressureIn, Max VisibilityMiles, Mean VisibilityMiles, Min VisibilityMiles, Max Wind SpeedMPH, Mean Wind SpeedMPH, Max Gust SpeedMPH,PrecipitationIn, CloudCover, Events, WindDirDegrees
2013-8-1,106,98,89,63,61,57,40,30,20,29.86,29.79,29.71,10,8,1,25,7,33,0.00,4,,130
2013-8-2,104,94,83,67,60,52,56,33,18,29.85,29.79,29.73,10,10,10,14,5,21,0.00,1,,196
2013-8-3,105,94,82,64,56,45,54,29,15,29.90,29.82,29.75,10,10,10,15,4,16,0.00,0,,24
2013-8-4,105,96,87,50,41,27,24,15,8,29.89,29.82,29.75,10,10,10,10,6,,0.00,0,,176
2013-8-5,102,92,82,63,51,36,40,25,14,29.92,29.84,29.77,10,10,2,21,10,23,0.00,3,Rain,205
2013-8-6,88,82,75,72,66,58,91,61,37,30.02,29.92,29.83,10,10,9,14,8,,0.08,5,Rain,155
2013-8-7,101,88,74,70,57,35,83,41,14,29.96,29.87,29.77,10,10,10,13,5,20,0.00,0,,224
2013-8-8,104,88,71,49,40,31,37,19,8,29.86,29.79,29.71,10,10,10,14,4,,0.00,0,,198
2013-8-9,105,88,72,46,41,36,34,21,9,29.82,29.77,29.72,10,10,10,9,5,17,0.00,0,,1
2013-8-10,,,,,,,,,,,,,,,,,,,,,,
2013-8-11,103,88,73,48,40,32,29,17,10,29.94,29.83,29.72,10,10,10,10,6,,0.00,0,,343
2013-8-12,106,91,76,59,46,32,41,21,8,29.88,29.79,29.72,10,10,10,15,6,18,0.00,0,,304
2013-8-13,104,89,74,44,36,26,28,16,7,29.91,29.83,29.75,10,10,10,10,4,17,0.00,0,,275
2013-8-14,108,94,79,50,42,29,26,16,10,29.91,29.81,29.70,10,10,10,12,5,16,0.00,2,,232
2013-8-15,107,96,86,63,57,46,44,27,16,29.87,29.80,29.72,10,10,10,15,7,,0.00,2,,141
2013-8-16,111,98,85,59,56,49,40,25,13,29.90,29.80,29.71,10,10,10,20,5,24,0.00,1,,18
2013-8-17,110,98,86,70,58,52,58,29,15,29.94,29.81,29.67,10,9,2,37,9,47,0.02,2,Rain-Thunderstorm,38
2013-8-18,109,96,84,68,60,50,58,33,14,29.91,29.81,29.69,10,10,10,23,11,30,0.01,2,Rain-Thunderstorm,156
2013-8-19,107,98,88,62,56,50,41,26,14,29.86,29.78,29.69,10,10,10,12,5,,0.00,3,,348
2013-8-20,108,96,84,59,55,49,39,25,14,29.84,29.75,29.66,10,10,8,17,6,28,0.00,1,,243
2013-8-21,99,93,87,63,59,56,43,32,24,29.88,29.82,29.75,10,10,10,8,4,,0.00,4,,92
2013-8-22,101,94,86,63,58,56,45,32,22,29.88,29.82,29.73,10,10,10,21,5,,0.00,4,,297
2013-8-23,102,92,81,63,58,51,51,34,19,29.82,29.74,29.65,10,10,10,12,7,,0.00,3,,305
2013-8-24,93,83,73,72,67,58,88,62,33,29.91,29.85,29.75,10,9,2,22,10,29,0.12,4,Rain-Thunderstorm,303
2013-8-25,84,80,77,76,71,68,95,72,60,29.99,29.92,29.85,10,10,3,10,6,,0.14,3,Rain,339
2013-8-26,97,87,77,77,70,65,100,65,36,29.91,29.85,29.74,10,9,0,40,7,50,0.29,5,Rain-Thunderstorm,292
2013-8-27,103,90,77,73,67,61,79,49,26,29.81,29.74,29.67,10,10,4,12,5,,0.00,2,,281
2013-8-28,104,90,77,73,66,59,86,53,22,29.97,29.80,29.68,10,9,4,25,8,38,0.38,3,Rain-Thunderstorm,245
2013-8-29,93,84,76,77,72,69,96,68,44,30.01,29.94,29.89,10,10,2,26,6,30,0.00,3,,217
2013-8-30,96,88,80,77,72,66,90,64,37,30.01,29.94,29.86,10,10,10,23,6,31,0.00,3,Rain,295
2013-8-31,100,90,80,73,70,62,76,55,29,29.94,29.86,29.76,10,10,8,10,5,,0.00,2,Thunderstorm,353